This is the latest recevied weather packets stored in our database for station/object VA3BOO. If no packets are shown the sender has not sent any weather packets the latest 10 day(s).
| Time | Temp. | Humidity | Pressure | Rain* | Wind** | Luminosity | Snow |
|---|---|---|---|---|---|---|---|
| 1776939004 | 5.56° C | 55% | 1016.7 hPa | 0 mm | - | 3 W/m² | - |
| 1776938705 | 5.56° C | 55% | 1016.5 hPa | 0 mm | - | 1 W/m² | - |
| 1776938405 | 5° C | 55% | 1016.5 hPa | 0 mm | - | 0 W/m² | - |
| 1776938104 | 5.56° C | 55% | 1016.6 hPa | 0 mm | - | 0 W/m² | - |
| 1776937804 | 5.56° C | 55% | 1016.6 hPa | 0 mm | - | 0 W/m² | - |
| 1776937504 | 5.56° C | 54% | 1016.5 hPa | 0 mm | - | 0 W/m² | - |
| 1776937204 | 5.56° C | 54% | 1016.4 hPa | 0 mm | - | 0 W/m² | - |
| 1776936904 | 6.11° C | 53% | 1016.5 hPa | 0 mm | - | 0 W/m² | - |
| 1776936604 | 6.11° C | 52% | 1016.1 hPa | 0 mm | - | 0 W/m² | - |
| 1776936304 | 6.67° C | 51% | 1016.2 hPa | 0 mm | - | 0 W/m² | - |
| 1776936004 | 6.67° C | 51% | 1016.2 hPa | 0 mm | - | 0 W/m² | - |
| 1776935704 | 6.67° C | 51% | 1016.3 hPa | 0 mm | - | 0 W/m² | - |
| 1776935404 | 6.67° C | 51% | 1016.5 hPa | 0 mm | - | 0 W/m² | - |
| 1776935104 | 6.67° C | 52% | 1016.4 hPa | 0 mm | - | 0 W/m² | - |
| 1776934804 | 6.11° C | 52% | 1016.2 hPa | 0 mm | - | 0 W/m² | - |
| 1776934504 | 6.67° C | 53% | 1016.3 hPa | 0 mm | - | 0 W/m² | - |
| 1776934204 | 6.67° C | 52% | 1016.3 hPa | 0 mm | - | 0 W/m² | - |
| 1776933904 | 6.67° C | 52% | 1016.2 hPa | 0 mm | - | 0 W/m² | - |
| 1776933604 | 7.22° C | 51% | 1016.4 hPa | 0 mm | - | 0 W/m² | - |
| 1776933304 | 7.22° C | 51% | 1016.3 hPa | 0 mm | - | 0 W/m² | - |
| 1776933004 | 7.22° C | 51% | 1016 hPa | 0 mm | - | 0 W/m² | - |
| 1776932704 | 7.22° C | 51% | 1016 hPa | 0 mm | - | 0 W/m² | - |
| 1776932404 | 7.78° C | 50% | 1015.9 hPa | 0 mm | - | 0 W/m² | - |
| 1776932104 | 7.78° C | 51% | 1015.9 hPa | 0 mm | - | 0 W/m² | - |
| 1776931804 | 7.78° C | 51% | 1015.8 hPa | 0 mm | - | 0 W/m² | - |
* Rain latest hour (hover to see other rain measurements)
** Current wind speed in m/s (hover to see current wind gust speed)